Time,TemperatureF,DewpointF,PressureIn,WindDirection,WindDirectionDegrees,WindSpeedMPH,WindSpeedGustMPH,Humidity,HourlyPrecipIn,Conditions,Clouds,dailyrainin,SoftwareType,DateUTC
2013-03-28 00:05:00,34.2,33.7,29.96,North,0,0.0,-999.0,98,-99.99,,,0.00,Acu-Link.com,2013-03-28 04:05:00,
2013-03-28 00:20:00,34.2,33.7,29.96,North,0,0.0,-999.0,98,-99.99,,,0.00,Acu-Link.com,2013-03-28 04:20:00,
2013-03-28 00:35:00,33.6,33.1,29.96,North,0,0.0,-999.0,98,-99.99,,,0.00,Acu-Link.com,2013-03-28 04:35:00,
2013-03-28 00:51:00,33.6,33.1,29.96,North,0,0.0,-999.0,98,-99.99,,,0.00,Acu-Link.com,2013-03-28 04:51:00,
2013-03-28 01:21:00,34.2,33.7,29.96,North,0,0.0,-999.0,98,-99.99,,,0.00,Acu-Link.com,2013-03-28 05:21:00,
2013-03-28 01:36:00,34.0,33.5,29.96,North,0,0.0,-999.0,98,-99.99,,,0.00,Acu-Link.com,2013-03-28 05:36:00,
2013-03-28 01:51:00,33.8,33.3,29.96,North,0,0.0,-999.0,98,-99.99,,,0.00,Acu-Link.com,2013-03-28 05:51:00,
2013-03-28 02:07:00,33.8,33.3,29.96,North,0,0.0,-999.0,98,-99.99,,,0.00,Acu-Link.com,2013-03-28 06:07:00,
2013-03-28 02:22:00,33.8,33.3,29.96,North,0,0.0,-999.0,98,-99.99,,,0.00,Acu-Link.com,2013-03-28 06:22:00,
2013-03-28 02:37:00,33.8,33.3,29.96,North,0,0.0,-999.0,98,-99.99,,,0.00,Acu-Link.com,2013-03-28 06:37:00,
2013-03-28 02:52:00,34.0,33.5,29.97,North,0,0.0,-999.0,98,-99.99,,,0.00,Acu-Link.com,2013-03-28 06:52:00,
2013-03-28 03:07:00,34.0,33.5,29.97,North,0,0.0,-999.0,98,-99.99,,,0.00,Acu-Link.com,2013-03-28 07:07:00,
2013-03-28 03:23:00,34.0,33.5,29.97,North,0,0.0,-999.0,98,-99.99,,,0.00,Acu-Link.com,2013-03-28 07:23:00,
2013-03-28 03:38:00,33.8,33.3,29.97,North,0,0.0,-999.0,98,-99.99,,,0.00,Acu-Link.com,2013-03-28 07:38:00,
2013-03-28 03:53:00,33.8,33.3,29.97,North,0,0.0,-999.0,98,-99.99,,,0.00,Acu-Link.com,2013-03-28 07:53:00,
2013-03-28 04:08:00,34.2,33.7,29.98,North,0,0.0,-999.0,98,-99.99,,,0.00,Acu-Link.com,2013-03-28 08:08:00,
2013-03-28 04:24:00,33.8,33.3,29.97,North,0,0.0,-999.0,98,-99.99,,,0.00,Acu-Link.com,2013-03-28 08:24:00,
2013-03-28 04:39:00,33.8,33.3,29.97,North,0,0.0,-999.0,98,-99.99,,,0.00,Acu-Link.com,2013-03-28 08:39:00,
2013-03-28 04:54:00,33.6,33.1,29.97,North,0,0.0,-999.0,98,-99.99,,,0.00,Acu-Link.com,2013-03-28 08:54:00,
2013-03-28 05:09:00,34.0,33.5,29.98,North,0,0.0,-999.0,98,-99.99,,,0.00,Acu-Link.com,2013-03-28 09:09:00,
2013-03-28 05:24:00,34.2,33.7,29.98,North,0,0.0,-999.0,98,-99.99,,,0.00,Acu-Link.com,2013-03-28 09:24:00,
2013-03-28 05:39:00,33.8,33.3,29.98,North,0,0.0,-999.0,98,-99.99,,,0.00,Acu-Link.com,2013-03-28 09:39:00,
2013-03-28 05:54:00,34.0,33.5,29.99,North,0,0.0,-999.0,98,-99.99,,,0.00,Acu-Link.com,2013-03-28 09:54:00,
2013-03-28 06:10:00,33.4,32.9,29.99,North,0,0.0,-999.0,98,-99.99,,,0.00,Acu-Link.com,2013-03-28 10:10:00,
2013-03-28 06:25:00,33.3,32.8,29.99,North,0,0.0,-999.0,98,-99.99,,,0.00,Acu-Link.com,2013-03-28 10:25:00,
2013-03-28 06:40:00,33.4,32.9,29.99,North,0,0.0,-999.0,98,-99.99,,,0.00,Acu-Link.com,2013-03-28 10:40:00,
2013-03-28 06:55:00,33.6,33.1,29.99,North,0,0.0,-999.0,98,-99.99,,,0.00,Acu-Link.com,2013-03-28 10:55:00,
2013-03-28 07:10:00,33.8,33.3,30.00,North,0,0.0,-999.0,98,-99.99,,,0.00,Acu-Link.com,2013-03-28 11:10:00,
2013-03-28 07:26:00,34.2,33.7,30.00,North,0,0.0,-999.0,98,-99.99,,,0.00,Acu-Link.com,2013-03-28 11:26:00,
2013-03-28 07:56:00,35.4,34.9,30.01,North,0,0.0,-999.0,98,-99.99,,,0.00,Acu-Link.com,2013-03-28 11:56:00,
2013-03-28 08:11:00,36.7,36.2,30.01,North,0,0.0,-999.0,98,-99.99,,,0.00,Acu-Link.com,2013-03-28 12:11:00,
2013-03-28 08:26:00,38.3,37.8,30.02,North,0,0.0,-999.0,98,-99.99,,,0.00,Acu-Link.com,2013-03-28 12:26:00,
2013-03-28 08:42:00,40.6,38.2,30.02,East,90,0.0,-999.0,91,-99.99,,,0.00,Acu-Link.com,2013-03-28 12:42:00,
2013-03-28 08:57:00,41.2,36.1,30.02,NNW,337,0.0,-999.0,82,-99.99,,,0.00,Acu-Link.com,2013-03-28 12:57:00,
2013-03-28 09:12:00,41.2,34.5,30.02,NNW,337,0.0,-999.0,77,-99.99,,,0.00,Acu-Link.com,2013-03-28 13:12:00,
2013-03-28 09:27:00,42.1,33.4,30.02,NNW,337,1.1,-999.0,71,-99.99,,,0.00,Acu-Link.com,2013-03-28 13:27:00,
2013-03-28 09:42:00,42.6,33.5,30.03,NE,45,1.6,-999.0,70,-99.99,,,0.00,Acu-Link.com,2013-03-28 13:42:00,
2013-03-28 09:58:00,43.2,33.0,30.02,SE,135,0.0,-999.0,67,-99.99,,,0.00,Acu-Link.com,2013-03-28 13:58:00,
2013-03-28 10:13:00,46.6,33.0,30.03,North,0,0.0,-999.0,59,-99.99,,,0.00,Acu-Link.com,2013-03-28 14:13:00,
2013-03-28 10:28:00,46.2,33.5,30.03,South,180,2.7,-999.0,61,-99.99,,,0.00,Acu-Link.com,2013-03-28 14:28:00,
2013-03-28 10:43:00,46.6,33.0,30.03,ENE,67,3.1,-999.0,59,-99.99,,,0.00,Acu-Link.com,2013-03-28 14:43:00,
2013-03-28 10:58:00,45.3,33.1,30.03,NNW,337,2.7,-999.0,62,-99.99,,,0.00,Acu-Link.com,2013-03-28 14:58:00,
2013-03-28 11:14:00,44.8,32.2,30.04,East,90,2.7,-999.0,61,-99.99,,,0.00,Acu-Link.com,2013-03-28 15:14:00,
2013-03-28 11:29:00,45.7,33.0,30.04,SSE,157,0.0,-999.0,61,-99.99,,,0.00,Acu-Link.com,2013-03-28 15:29:00,
2013-03-28 11:44:00,45.9,32.8,30.04,North,0,0.0,-999.0,60,-99.99,,,0.00,Acu-Link.com,2013-03-28 15:44:00,
2013-03-28 11:59:00,45.9,32.8,30.04,North,0,0.0,-999.0,60,-99.99,,,0.00,Acu-Link.com,2013-03-28 15:59:00,
2013-03-28 12:14:00,48.7,32.8,30.03,SW,225,1.1,-999.0,54,-99.99,,,0.00,Acu-Link.com,2013-03-28 16:14:00,
2013-03-28 12:29:00,49.1,31.8,30.03,North,0,0.0,-999.0,51,-99.99,,,0.00,Acu-Link.com,2013-03-28 16:29:00,
2013-03-28 12:45:00,49.1,31.8,30.03,WSW,247,0.0,-999.0,51,-99.99,,,0.00,Acu-Link.com,2013-03-28 16:45:00,
2013-03-28 13:00:00,47.8,31.5,30.03,ENE,67,1.6,-999.0,53,-99.99,,,0.00,Acu-Link.com,2013-03-28 17:00:00,
2013-03-28 13:15:00,48.4,32.0,30.03,ESE,112,3.8,-999.0,53,-99.99,,,0.00,Acu-Link.com,2013-03-28 17:15:00,
2013-03-28 13:30:00,48.2,31.9,30.02,ENE,67,0.0,-999.0,53,-99.99,,,0.00,Acu-Link.com,2013-03-28 17:30:00,
2013-03-28 13:45:00,49.6,31.3,30.03,ENE,67,3.8,-999.0,49,-99.99,,,0.00,Acu-Link.com,2013-03-28 17:45:00,
2013-03-28 14:16:00,48.0,30.3,30.02,North,0,1.1,-999.0,50,-99.99,,,0.00,Acu-Link.com,2013-03-28 18:16:00,
2013-03-28 14:31:00,48.9,31.6,30.02,SSW,202,4.3,-999.0,51,-99.99,,,0.00,Acu-Link.com,2013-03-28 18:31:00,
2013-03-28 14:46:00,48.2,31.9,30.02,NNW,337,0.0,-999.0,53,-99.99,,,0.00,Acu-Link.com,2013-03-28 18:46:00,
2013-03-28 15:01:00,47.5,32.6,30.01,WSW,247,0.0,-999.0,56,-99.99,,,0.00,Acu-Link.com,2013-03-28 19:01:00,
2013-03-28 15:17:00,47.8,32.5,30.01,North,0,0.0,-999.0,55,-99.99,,,0.00,Acu-Link.com,2013-03-28 19:17:00,
2013-03-28 15:32:00,48.9,32.5,30.01,South,180,1.1,-999.0,53,-99.99,,,0.00,Acu-Link.com,2013-03-28 19:32:00,
2013-03-28 15:47:00,48.9,32.1,30.01,ESE,112,3.1,-999.0,52,-99.99,,,0.00,Acu-Link.com,2013-03-28 19:47:00,
2013-03-28 16:02:00,49.1,31.8,30.01,North,0,1.1,-999.0,51,-99.99,,,0.00,Acu-Link.com,2013-03-28 20:02:00,
2013-03-28 16:17:00,49.3,31.9,30.01,North,0,3.1,-999.0,51,-99.99,,,0.00,Acu-Link.com,2013-03-28 20:17:00,
2013-03-28 16:32:00,48.4,32.5,30.02,North,0,0.0,-999.0,54,-99.99,,,0.00,Acu-Link.com,2013-03-28 20:32:00,
2013-03-28 16:48:00,47.8,32.9,30.01,North,0,2.2,-999.0,56,-99.99,,,0.00,Acu-Link.com,2013-03-28 20:48:00,
2013-03-28 17:03:00,47.3,32.4,30.01,North,0,0.0,-999.0,56,-99.99,,,0.00,Acu-Link.com,2013-03-28 21:03:00,
2013-03-28 17:18:00,46.6,32.2,30.02,North,0,0.0,-999.0,57,-99.99,,,0.00,Acu-Link.com,2013-03-28 21:18:00,
2013-03-28 17:33:00,46.0,34.2,30.02,SSW,202,5.8,-999.0,63,-99.99,,,0.00,Acu-Link.com,2013-03-28 21:33:00,
2013-03-28 17:48:00,44.2,35.1,30.02,ESE,112,2.2,-999.0,70,-99.99,,,0.00,Acu-Link.com,2013-03-28 21:48:00,
2013-03-28 18:04:00,42.1,35.7,30.03,North,0,0.0,-999.0,78,-99.99,,,0.00,Acu-Link.com,2013-03-28 22:04:00,
2013-03-28 18:19:00,41.7,35.7,30.04,North,0,0.0,-999.0,79,-99.99,,,0.00,Acu-Link.com,2013-03-28 22:19:00,
2013-03-28 18:34:00,40.6,35.6,30.04,North,0,0.0,-999.0,82,-99.99,,,0.00,Acu-Link.com,2013-03-28 22:34:00,
2013-03-28 18:49:00,40.5,36.3,30.04,North,0,0.0,-999.0,85,-99.99,,,0.00,Acu-Link.com,2013-03-28 22:49:00,
2013-03-28 19:04:00,40.3,36.7,30.04,North,0,0.0,-999.0,87,-99.99,,,0.00,Acu-Link.com,2013-03-28 23:04:00,
2013-03-28 19:20:00,40.1,37.7,30.05,North,0,0.0,-999.0,91,-99.99,,,0.00,Acu-Link.com,2013-03-28 23:20:00,
2013-03-28 19:35:00,39.6,36.9,30.05,North,0,0.0,-999.0,90,-99.99,,,0.00,Acu-Link.com,2013-03-28 23:35:00,
2013-03-28 19:50:00,39.4,36.7,30.05,North,0,0.0,-999.0,90,-99.99,,,0.00,Acu-Link.com,2013-03-28 23:50:00,
2013-03-28 20:05:00,39.0,36.9,30.06,North,0,0.0,-999.0,92,-99.99,,,0.00,Acu-Link.com,2013-03-29 00:05:00,
2013-03-28 20:20:00,39.0,36.6,30.06,North,0,4.3,-999.0,91,-99.99,,,0.00,Acu-Link.com,2013-03-29 00:20:00,
2013-03-28 20:36:00,40.3,35.5,30.07,North,0,2.7,-999.0,83,-99.99,,,0.00,Acu-Link.com,2013-03-29 00:36:00,
2013-03-28 20:51:00,40.3,35.5,30.06,North,0,1.6,-999.0,83,-99.99,,,0.00,Acu-Link.com,2013-03-29 00:51:00,
2013-03-28 21:21:00,38.8,36.2,30.07,SW,225,0.0,-999.0,90,-99.99,,,0.00,Acu-Link.com,2013-03-29 01:21:00,
2013-03-28 21:36:00,38.3,36.2,30.07,SW,225,0.0,-999.0,92,-99.99,,,0.00,Acu-Link.com,2013-03-29 01:36:00,
2013-03-28 21:52:00,38.1,37.6,30.07,SW,225,0.0,-999.0,98,-99.99,,,0.00,Acu-Link.com,2013-03-29 01:52:00,
2013-03-28 22:07:00,37.6,37.1,30.07,SW,225,0.0,-999.0,98,-99.99,,,0.00,Acu-Link.com,2013-03-29 02:07:00,
2013-03-28 22:22:00,37.6,37.1,30.07,South,180,0.0,-999.0,98,-99.99,,,0.00,Acu-Link.com,2013-03-29 02:22:00,
2013-03-28 22:37:00,38.1,35.5,30.07,NNW,337,0.0,-999.0,90,-99.99,,,0.00,Acu-Link.com,2013-03-29 02:37:00,
2013-03-28 22:52:00,37.6,35.2,30.07,NNW,337,0.0,-999.0,91,-99.99,,,0.00,Acu-Link.com,2013-03-29 02:52:00,
2013-03-28 23:08:00,38.3,34.8,30.07,SSE,157,0.0,-999.0,87,-99.99,,,0.00,Acu-Link.com,2013-03-29 03:08:00,
2013-03-28 23:23:00,39.2,34.2,30.06,North,0,0.0,-999.0,82,-99.99,,,0.00,Acu-Link.com,2013-03-29 03:23:00,
2013-03-28 23:38:00,39.4,33.4,30.07,North,0,0.0,-999.0,79,-99.99,,,0.00,Acu-Link.com,2013-03-29 03:38:00,
2013-03-28 23:53:00,39.6,33.3,30.07,SSW,202,1.1,-999.0,78,-99.99,,,0.00,Acu-Link.com,2013-03-29 03:53:00,